Weather History for KAKH - May, 2013

Change the Weather History Date:

Friday, May 3, 2013

  Actual Average (KCLT) Record (KCLT)
Temperature  
Mean Temperature 60 °F 64 °F  
Max Temperature 68 °F 76 °F 94 °F (1902)
Min Temperature 55 °F 52 °F 39 °F (1981)
Degree Days  
Heating Degree Days 4 3  
Month to date heating degree days 10  
Since 1 July heating degree days 3342  
Cooling Degree Days 0 2  
Month to date cooling degree days 6  
Year to date cooling degree days 43  
Growing Degree Days 10 (Base 50)    
Moisture  
Dew Point 52 °F    
Average Humidity 76    
Maximum Humidity 94    
Minimum Humidity 58    
Precipitation  
Precipitation 0.00 in 0.10 in 3.67 in (1975)
Month to date precipitation 0.29  
Year to date precipitation 14.07  
Snow  
Snow 0.00 in 0.00 in 0.00 in ()
Month to date snowfall 0.0  
Since 1 July snowfall 4.3  
Snow Depth -    
Sea Level Pressure  
Sea Level Pressure 30.18 in    
Wind  
Wind Speed 9 mph (NE)    
Max Wind Speed 17 mph    
Max Gust Speed 23 mph    
Visibility 10 miles    
Events      
T = Trace of Precipitation, MM = Missing Value Source: NWS Daily Summary

Daily Weather History Graph

Daily Weather History Graph

Search for Another Location

Airport or City:

Trip Planner

Search our weather history database for the weather conditions in past years. The results will help you decide how hot, cold, wet, or windy it might be!

Date:

Astronomy

May. 03, 2013 Rise Set
Actual Time 6:31 AM EDT 8:12 PM EDT
Civil Twilight 6:03 AM EDT 8:39 PM EDT
Nautical Twilight 5:31 AM EDT 9:12 PM EDT
Astronomical Twilight 4:56 AM EDT 9:47 PM EDT
Moon 2:40 AM EDT 2:18 PM EDT
Length of Visible Light 14h 35m
Length of Day
13h 41m
Last Quarter, 37% of the Moon is Illuminated
May 3
Last Quarter
May 9
New
May 18
First Quarter
May 25
Full
May 31
Last Quarter

Hourly Weather History & Observations

Time (EDT) Temp. Dew Point Humidity Pressure Visibility Wind Dir Wind Speed Gust Speed Precip Events Conditions
12:31 AM 57.2 °F 55.4 °F 94% 30.23 in 10.0 mi NE 5.8 mph - N/A   Overcast
12:54 AM 57.9 °F 55.9 °F 93% 30.22 in 10.0 mi NNE 6.9 mph - N/A   Overcast
1:15 AM 57.2 °F 55.4 °F 94% 30.22 in 10.0 mi NNE 8.1 mph - N/A   Overcast
1:54 AM 57.9 °F 55.0 °F 90% 30.21 in 10.0 mi NNE 6.9 mph - N/A   Overcast
2:54 AM 57.9 °F 55.0 °F 90% 30.19 in 10.0 mi NE 8.1 mph - N/A   Overcast
3:26 AM 57.2 °F 53.6 °F 88% 30.19 in 10.0 mi NE 8.1 mph - N/A   Overcast
3:50 AM 57.2 °F 53.6 °F 88% 30.18 in 10.0 mi ENE 9.2 mph - N/A   Overcast
4:12 AM 57.2 °F 53.6 °F 88% 30.19 in 10.0 mi ENE 9.2 mph - N/A   Overcast
4:25 AM 57.2 °F 53.6 °F 88% 30.19 in 9.0 mi ENE 5.8 mph - N/A   Overcast
4:34 AM 57.2 °F 53.6 °F 88% 30.19 in 8.0 mi ENE 5.8 mph - N/A   Overcast
4:43 AM 57.2 °F 53.6 °F 88% 30.19 in 9.0 mi ENE 6.9 mph - N/A   Overcast
4:54 AM 57.0 °F 52.0 °F 83% 30.18 in 10.0 mi NE 6.9 mph - N/A   Overcast
5:54 AM 55.9 °F 51.1 °F 84% 30.18 in 10.0 mi NE 8.1 mph - N/A   Overcast
6:54 AM 55.9 °F 51.1 °F 84% 30.19 in 10.0 mi NNE 11.5 mph - N/A   Overcast
7:52 AM 55.4 °F 50.0 °F 82% 30.21 in 10.0 mi NE 11.5 mph - N/A   Mostly Cloudy
7:54 AM 55.9 °F 50.0 °F 80% 30.21 in 10.0 mi NE 15.0 mph 20.7 mph N/A   Mostly Cloudy
8:54 AM 57.0 °F 50.0 °F 77% 30.21 in 10.0 mi ENE 17.3 mph 23.0 mph N/A   Mostly Cloudy
9:54 AM 59.0 °F 51.1 °F 75% 30.21 in 10.0 mi ENE 11.5 mph - N/A   Overcast
10:04 AM 59.0 °F 51.8 °F 77% 30.22 in 10.0 mi NE 11.5 mph 21.9 mph N/A   Overcast
10:19 AM 60.8 °F 51.8 °F 72% 30.22 in 10.0 mi NE 10.4 mph 20.7 mph N/A   Overcast
10:43 AM 60.8 °F 50.0 °F 68% 30.22 in 10.0 mi NE 11.5 mph - N/A   Overcast
10:51 AM 59.0 °F 51.8 °F 77% 30.22 in 7.0 mi ENE 11.5 mph 18.4 mph N/A   Overcast
10:54 AM 59.0 °F 51.1 °F 75% 30.21 in 7.0 mi NE 9.2 mph 18.4 mph N/A   Overcast
11:54 AM 62.1 °F 52.0 °F 70% 30.21 in 10.0 mi NE 9.2 mph - N/A   Overcast
12:54 PM 66.0 °F 52.0 °F 60% 30.19 in 10.0 mi NE 13.8 mph - N/A   Overcast
1:54 PM 64.9 °F 52.0 °F 63% 30.17 in 10.0 mi NE 12.7 mph 20.7 mph N/A   Overcast
2:54 PM 66.0 °F 52.0 °F 60% 30.15 in 10.0 mi NE 13.8 mph - N/A   Scattered Clouds
3:54 PM 66.0 °F 54.0 °F 65% 30.14 in 10.0 mi NE 10.4 mph - N/A   Mostly Cloudy
4:54 PM 66.0 °F 51.1 °F 59% 30.12 in 10.0 mi ENE 10.4 mph 23.0 mph N/A   Mostly Cloudy
5:54 PM 64.9 °F 50.0 °F 58% 30.12 in 10.0 mi ENE 6.9 mph - N/A   Overcast
6:54 PM 64.9 °F 51.1 °F 61% 30.11 in 10.0 mi ENE 9.2 mph 17.3 mph N/A   Overcast
7:54 PM 64.0 °F 51.1 °F 63% 30.12 in 10.0 mi ENE 10.4 mph - N/A   Overcast
8:54 PM 62.1 °F 51.1 °F 67% 30.11 in 10.0 mi NE 9.2 mph - N/A   Mostly Cloudy
9:54 PM 62.1 °F 52.0 °F 70% 30.12 in 10.0 mi NE 8.1 mph - N/A   Overcast
10:54 PM 61.0 °F 51.1 °F 70% 30.12 in 10.0 mi ENE 9.2 mph - N/A   Partly Cloudy
11:54 PM 59.0 °F 45.0 °F 60% 30.12 in 10.0 mi East 11.5 mph 18.4 mph N/A   Partly Cloudy